Location: Colebrook
(42.0017°N, 73.0973°W)
Time: 15:27:27
(UTC-05:00)

Vanguard 2 - Pass Details

Date: 30 October 2021
Orbit: 554 x 2936 km, 32.9° (Epoch: 04 December)

Event Time Altitude Azimuth Distance (km) Brightness Sun altitude
Rises 20:55:09 0° 193° (SSW) 6,593 12.3 -35.1°
Reaches altitude 10° 21:01:26 10° 179° (S) 5,727 11.8 -36.2°
Enters shadow 21:06:02 16° 164° (SSE) 5,244 11.4 -37.0°
